TIME,DELAY(SENSOR),PRES,OXYGEN,RAWTEMP,T(OPTODE),TCPHASE,FLUOR,BETA(BETA700),BETA(BETA412),BETA(BETA440),CDOM,C(CSC),ED(ED411.90),ED(ED443.80),ED(ED489.40),ED(ED554.70),LU(LU412.20),LU(LU443.80),LU(LU489.40),LU(LU555.00),COMP,TILTX,TILTY,CHECK
1355610065,5805,857.3200073242188000,163.9156951904297000,434.4560852050781000,9.5497741699218750,39.2384185791015600,52,100,52,55,62,12758,2146958729,2147515574,2147287908,2147501723,2147091748,2146930925,2147706157,2147123968,317,-1,8,63112
1355613661,5806,964.9000244140625000,200.3311004638672000,503.7723083496094000,7.4124140739440920,37.9443511962890600,51,101,51,56,62,12750,2146962779,2147519360,2147298176,2147514084,2147093275,2146925842,2147719232,2147121682,2074,-1,8,48728
1355617261,5806,983.8699951171875000,207.4385070800781200,511.4025878906250000,7.1752991676330570,37.6484794616699200,52,100,52,55,62,12740,2146963474,2147524004,2147294381,2147519140,2147092041,2146922578,2147720996,2147120274,209,-1,8,49350
1355620861,5804,991.1500244140625000,209.2080993652343800,512.0281982421875000,7.1558408737182620,37.5545883178710940,52,102,51,55,62,12738,2146960905,2147517568,2147296594,2147515483,2147094518,2146927360,2147721718,2147122075,3365,-1,8,1698
1355624461,5807,998.3099975585938000,210.0697021484375000,512.5844726562500000,7.1385350227355960,37.5136795043945300,52,99,53,54,62,12734,2146960594,2147516068,2147294829,2147514834,2147094884,2146920941,2147719515,2147121408,206,-1,8,43807
1355628061,5808,996.2299804687500000,210.5834045410156200,513.6751708984375000,7.1045980453491210,37.5029792785644500,51,104,52,55,63,12735,2146964123,2147516379,2147297782,2147520667,2147090834,2146920100,2147721353,2147123757,3,-1,8,19057
1355631661,5807,994.3300170898438000,212.2019958496093800,516.5623779296875000,7.0147271156311035,37.4591407775878900,53,100,51,56,63,12720,2146963328,2147518089,2147295707,2147518994,2147090779,2146920246,2147722121,2147120420,803,-1,8,32001
1355635261,5805,997.8800048828125000,212.0644073486328000,516.7559204101562000,7.0087032318115230,37.4708404541015600,52,97,53,54,63,12733,2146962797,2147519606,2147298075,2147518537,2147094683,2146921426,2147719213,2147122624,3365,-1,8,36190
1355638861,5804,999.0200195312500000,212.5697937011718800,517.0364990234375000,6.9999651908874510,37.4455604553222660,51,99,51,55,62,12732,2146961069,2147518966,2147299364,2147519003,2147091739,2146923044,2147725778,2147121426,2985,-1,8,27055
1355642461,5805,997.8400268554688000,212.3027038574218800,517.8513183593750000,6.9745888710021970,37.4760284423828100,50,99,52,55,62,12725,2146963501,2147516699,2147299620,2147521600,2147093568,2146923254,2147721984,2147122669,3353,-1,8,11493
1355646061,5804,1002.8599853515625000,211.5308074951172000,517.7703247070312000,6.9771108627319340,37.5195198059082000,52,99,51,54,62,12732,2146962505,2147520411,2147297097,2147517897,2147094454,2146922898,2147722514,2147120155,3421,0,8,20282
1355649661,5805,998.5499877929688000,211.0014953613281200,517.2974853515625000,6.9918370246887210,37.5419502258300800,52,98,52,56,62,12731,2146962413,2147515474,2147297106,2147515666,2147095158,2146921344,2147723456,2147123236,3450,-1,8,42230
1355653261,5807,996.5499877929688000,215.2689971923828000,519.4603881835938000,6.9244589805603030,37.3334503173828100,51,105,51,54,62,12729,2146965092,2147522313,2147300406,2147516672,2147092333,2146922194,2147723840,2147118930,668,-1,8,57540
1355656861,5808,994.3300170898438000,216.3007965087890600,520.7194213867188000,6.8852248191833500,37.2967491149902340,52,100,51,55,62,12728,2146961618,2147520265,2147298852,2147520018,2147093851,2146923099,2147723657,2147119442,467,-1,8,43501
1355660461,5807,994.4799804687500000,216.6611022949218800,521.1364746093750000,6.8722271919250490,37.2835998535156250,51,99,51,54,63,12730,2146959378,2147520365,2147296155,2147519140,2147094802,2146921371,2147723922,2147123081,152,-1,8,14492
1355664061,5806,1002.7100219726562000,214.7528076171875000,519.5734863281250000,6.9209351539611820,37.3646888732910160,52,98,50,55,62,12725,2146961005,2147519012,2147296091,2147520850,2147094006,2146925796,2147722176,2147119762,3092,-1,8,49232
1355667661,5804,1003.1500244140625000,212.6184997558593800,519.3615112304688000,6.9275422096252440,37.4838104248046900,51,99,51,55,62,12727,2146962953,2147521106,2147296329,2147515821,2147094893,2146921435,2147722313,2147122587,3497,-1,8,43350
1355671261,5805,998.5700073242188000,213.7212982177734400,520.4235839843750000,6.8944449424743650,37.4393081665039060,52,99,51,54,62,12723,2146963026,2147518665,2147297828,2147521755,2147094208,2146926848,2147721252,2147124050,3528,-1,8,19508
1355674861,5808,1002.8599853515625000,214.0832977294922000,519.7238159179688000,6.9162521362304690,37.4060516357421900,52,98,51,55,63,12728,2146962587,2147523547,2147294509,2147517668,2147091309,2146929627,2147717220,2147123931,3589,-1,8,12783
1355678461,5809,1001.3699951171875000,213.5027008056640600,519.5814819335938000,6.9206881523132320,37.4371490478515600,51,98,53,54,62,12726,2146961362,2147520539,2147297179,2147518921,2147091657,2146923849,2147721033,2147117394,231,-1,8,27569
1355682061,5808,1001.9699707031250000,212.8126983642578000,520.2401733398438000,6.9001598358154300,37.4885902404785160,52,99,52,54,63,12702,2146962166,2147517970,2147294838,2147517430,2147093705,2146919725,2147722185,2147121261,3382,-1,8,48289
1355685661,5807,1001.7100219726562000,213.6665039062500000,520.4307861328125000,6.8942189216613770,37.4428215026855500,52,99,52,54,62,12727,2146961481,2147517101,2147299684,2147521554,2147092470,2146918308,2147724662,2147119597,3267,-1,8,57707
1355689261,5806,1001.9299926757812000,214.3078002929687500,519.4381103515625000,6.9251551628112790,37.3878898620605500,52,100,51,56,62,12683,2146962130,2147522084,2147298285,2147521362,2147091721,2146918637,2147722788,2147120731,3086,-1,8,60993
1355692861,5805,1006.2899780273438000,214.8292999267578000,520.0864257812500000,6.9049530029296875,37.3698310852050800,53,100,52,56,63,12703,2146960731,2147518518,2147296841,2147521124,2147091117,2146919250,2147719552,2147122212,3052,-1,8,50521
1355696461,5805,1006.1400146484375000,214.7534942626953000,519.5410766601562000,6.9219470024108890,37.3639488220214840,52,99,53,55,62,12717,2146960996,2147514925,2147299419,2147519515,2147094537,2146918729,2147721883,2147122102,3238,-1,9,30890
1355700061,5803,1006.3800048828125000,214.8025054931640600,519.6834106445312000,6.9175109863281250,37.3635902404785160,52,99,51,55,62,12725,2146959296,2147521444,2147298669,2147516690,2147093220,2146919579,2147721161,2147123291,3024,-1,8,31810
1355703661,5804,1003.9500122070312000,214.7247009277343800,519.7498168945312000,6.9154438972473145,37.3693618774414060,51,101,51,56,62,12675,2146961526,2147521417,2147298761,2147522486,2147089179,2146919433,2147719488,2147119890,3309,-1,8,55256
1355707261,5806,1008.0100097656250000,214.4909973144531200,519.2302246093750000,6.9316320419311520,37.3740882873535160,52,99,51,55,62,12722,2146964379,2147519652,2147297188,2147517248,2147095286,2146919734,2147721325,2147121526,3221,-1,9,34495
1355710861,5808,1006.1599731445312000,214.0119018554687500,519.3306274414062000,6.9285039901733400,37.4031715393066400,52,98,52,54,63,12719,2146960905,2147518793,2147299931,2147518683,2147091611,2146924114,2147722651,2147121910,3423,-1,8,5742
1355714461,5808,1005.0900268554688000,214.9584960937500000,519.5443115234375000,6.9218459129333500,37.3521308898925800,52,100,51,55,63,12724,2146961014,2147519131,2147296749,2147518052,2147094061,2146926912,2147720283,2147123364,147,-1,8,27523
1355718061,5804,1001.0900268554688000,216.3952941894531200,521.1486816406250000,6.8718447685241700,37.2988700866699200,51,107,51,55,63,12721,2146964022,2147515099,2147298532,2147521773,2147091648,2146927040,2147719872,2147123273,2831,-1,8,53676
1355721661,5807,1009.7100219726562000,215.6027069091797000,519.6994018554688000,6.9170131683349610,37.3181190490722660,52,117,52,55,63,12720,2146960521,2147521225,2147298541,2147518089,2147092745,2146918052,2147722642,2147117522,484,-1,8,15367
1355725261,5806,1005.8200073242188000,216.4512939453125000,520.5098876953125000,6.8917560577392580,37.2846794128418000,52,99,52,55,63,12718,2146959588,2147519862,2147294729,2147520576,2147094994,2146925805,2147724800,2147123501,609,-1,8,61407
1355728861,5806,1009.0300292968750000,216.5265045166015600,520.5665893554688000,6.8899888992309570,37.2810401916503900,51,103,51,54,62,12716,2146958272,2147519232,2147299318,2147518656,2147092004,2146923209,2147719387,2147125202,667,-1,8,23802
1355732461,5805,1003.9099731445312000,216.9006958007812500,521.4030151367188000,6.8639178276062010,37.2744483947753900,51,99,53,55,62,12717,2146962377,2147521499,2147296822,2147522825,2147093458,2146920566,2147720146,2147122907,3405,-1,8,1591
1355736061,5805,1002.0700073242188000,217.0756072998047000,522.0173950195312000,6.8447661399841310,37.2758789062500000,51,98,51,54,64,12718,2146962148,2147521892,2147299035,2147518372,2147092726,2146925421,2147718619,2147120438,3288,-1,9,29012
1355739661,5805,1004.7299804687500000,217.0917968750000000,521.3884277343750000,6.8643732070922850,37.2635002136230500,52,99,51,60,63,12712,2146960740,2147520009,2147297197,2147521216,2147091584,2146924772,2147725046,2147121069,166,-1,8,18867
1355743261,5804,1008.7399902343750000,215.5513000488281200,520.2145996093750000,6.9009590148925780,37.3298606872558600,51,98,52,55,62,12716,2146960612,2147517732,2147298212,2147520310,2147094400,2146927094,2147720448,2147118345,3363,-1,8,12882
1355746861,5806,1009.2800292968750000,214.1448059082031200,520.2659301757812000,6.8993601799011230,37.4117698669433600,51,99,51,54,63,12715,2146962825,2147516635,2147297600,2147519744,2147095652,2146922660,2147722944,2147123794,3521,-1,8,28449
1355750461,5808,1009.1199951171875000,212.9913940429687500,520.1672973632812000,6.9024319648742680,37.4768218994140600,51,100,52,54,64,12710,2146960804,2147517970,2147298733,2147520850,2147089353,2146918016,2147719552,2147123785,3589,-1,9,4307
1355754061,5806,1005.4699707031250000,216.6864013671875000,522.0084228515625000,6.8450450897216800,37.2975997924804700,52,100,51,54,63,12716,2146963099,2147515565,2147296822,2147520539,2147092836,2146925147,2147723510,2147121965,3490,-1,8,10932
1355754355,5807,1062.0000000000000000,216.7550048828125000,521.9636230468750000,6.8464431762695310,37.2931404113769500,51,99,52,56,62,12710,2146962258,2147518966,2147296841,2147519798,2147093284,2146919497,2147725988,2147123154,3364,-1,8,1056
